IGO1904 LGAV-VABB

Flight info

Callsign IGO1904
Flight time N/A
Altitude 31000
Route PIPEN DCT SITRU DCT IMR DCT KFK DCT HAY DCT GEM DCT EZS DCT ULTED DCT YKV DCT IMKEN/N0471F330 DCT SYZ DCT MELMI DCT VAXIM/N0471F350 DCT PARAR DCT DOGET DCT SUGID DCT BBB
Aircraft A21N/M-SDE3FGHIRWY/LB1

Departure

Time 2026-05-06 12:50
Airport Athens Eleftherios Venizelos International Airport (LGAV)

Arrival

Time N/A
Airport Chhatrapati Shivaji Maharaj International Airport (VABB)
Time Latitude Longitude Altitude Speed Heading
2026-05-06 12:30 37.93413 23.94650 288 ft 0 kts 309°
2026-05-06 12:38 37.93412 23.94651 288 ft 1 kts 309°
2026-05-06 12:38 37.93403 23.94667 288 ft 2 kts 306°
2026-05-06 12:38 37.93394 23.94681 288 ft 2 kts 309°
2026-05-06 12:38 37.93385 23.94696 288 ft 2 kts 307°
2026-05-06 12:39 37.93376 23.94711 288 ft 2 kts 308°
2026-05-06 12:39 37.93367 23.94725 288 ft 2 kts 308°
2026-05-06 12:39 37.93361 23.94735 288 ft 0 kts 330°
2026-05-06 12:39 37.93355 23.94736 288 ft 0 kts 27°
2026-05-06 12:40 37.93346 23.94725 288 ft 2 kts 46°
2026-05-06 12:40 37.93338 23.94716 288 ft 0 kts 35°
2026-05-06 12:40 37.93335 23.94714 288 ft 0 kts 36°
2026-05-06 12:42 37.93338 23.94716 288 ft 1 kts 36°
2026-05-06 12:43 37.93348 23.94725 288 ft 2 kts 36°
2026-05-06 12:43 37.93361 23.94737 288 ft 2 kts 36°
2026-05-06 12:43 37.93378 23.94753 288 ft 3 kts 37°
2026-05-06 12:43 37.93397 23.94772 288 ft 3 kts 37°
2026-05-06 12:44 37.93420 23.94794 288 ft 4 kts 38°
2026-05-06 12:44 37.93443 23.94823 288 ft 4 kts 52°
2026-05-06 12:44 37.93446 23.94862 288 ft 5 kts 111°
2026-05-06 12:44 37.93416 23.94925 288 ft 10 kts 122°
2026-05-06 12:45 37.93395 23.95025 288 ft 14 kts 67°
2026-05-06 12:45 37.93478 23.95119 288 ft 18 kts 36°
2026-05-06 12:45 37.93753 23.95377 288 ft 28 kts 37°
2026-05-06 12:46 37.93906 23.95522 288 ft 26 kts 37°
2026-05-06 12:46 37.94061 23.95670 288 ft 29 kts 37°
2026-05-06 12:46 37.94225 23.95826 288 ft 28 kts 36°
2026-05-06 12:46 37.94385 23.95978 287 ft 28 kts 37°
2026-05-06 12:47 37.94539 23.96125 287 ft 25 kts 37°
2026-05-06 12:47 37.94679 23.96260 287 ft 25 kts 33°
2026-05-06 12:47 37.94817 23.96387 287 ft 22 kts 38°
2026-05-06 12:47 37.94937 23.96502 287 ft 21 kts 37°
2026-05-06 12:48 37.95059 23.96616 287 ft 21 kts 36°
2026-05-06 12:48 37.95192 23.96742 287 ft 25 kts 37°
2026-05-06 12:48 37.95336 23.96878 287 ft 17 kts 38°
2026-05-06 12:48 37.95387 23.96939 287 ft 8 kts 65°
2026-05-06 12:49 37.95370 23.97004 287 ft 8 kts 141°
2026-05-06 12:49 37.95311 23.97024 287 ft 11 kts 171°
2026-05-06 12:49 37.95205 23.97023 287 ft 20 kts 199°
2026-05-06 12:49 37.95053 23.96889 287 ft 33 kts 217°
2026-05-06 12:50 37.94684 23.96541 287 ft 98 kts 217°
2026-05-06 12:50 37.93982 23.95871 289 ft 153 kts 216°
2026-05-06 12:50 37.93002 23.94950 346 ft 193 kts 216°
2026-05-06 12:50 37.91884 23.94041 919 ft 193 kts 205°
2026-05-06 12:51 37.90661 23.93343 1616 ft 193 kts 203°
2026-05-06 12:51 37.89424 23.92651 2219 ft 196 kts 205°
2026-05-06 12:51 37.88156 23.91860 2543 ft 213 kts 207°
2026-05-06 12:51 37.86790 23.90954 2808 ft 234 kts 208°
2026-05-06 12:52 37.85296 23.89927 3220 ft 249 kts 209°
2026-05-06 12:52 37.83766 23.88847 3679 ft 262 kts 210°
2026-05-06 12:52 37.82156 23.87702 4302 ft 268 kts 210°
2026-05-06 12:52 37.80613 23.86601 4964 ft 270 kts 210°
2026-05-06 12:53 37.79063 23.85494 5607 ft 273 kts 210°
2026-05-06 12:53 37.77263 23.84490 6154 ft 274 kts 190°
2026-05-06 12:53 37.75493 23.84669 6571 ft 283 kts 158°
2026-05-06 12:53 37.74069 23.85837 7170 ft 284 kts 132°
2026-05-06 12:54 37.72958 23.88075 7864 ft 285 kts 115°
2026-05-06 12:54 37.72107 23.90341 8466 ft 289 kts 113°
2026-05-06 12:54 37.71595 23.92692 8993 ft 290 kts 88°
2026-05-06 12:54 37.71885 23.95149 9603 ft 288 kts 73°
2026-05-06 12:55 37.72391 23.97470 10160 ft 290 kts 72°
2026-05-06 12:55 37.72944 23.99996 10512 ft 302 kts 73°
2026-05-06 12:55 37.73477 24.02638 10793 ft 316 kts 74°
2026-05-06 12:55 37.73980 24.05328 11046 ft 330 kts 75°
2026-05-06 12:56 37.74492 24.08212 11293 ft 344 kts 75°
2026-05-06 12:56 37.75003 24.11189 11538 ft 358 kts 75°
2026-05-06 12:56 37.75531 24.14334 11775 ft 371 kts 76°
2026-05-06 12:56 37.76065 24.17551 12013 ft 384 kts 76°
2026-05-06 12:57 37.76616 24.20902 12223 ft 396 kts 76°
2026-05-06 12:57 37.77161 24.24228 12454 ft 407 kts 76°
2026-05-06 12:57 37.77725 24.27685 12841 ft 413 kts 76°
2026-05-06 12:57 37.78295 24.31204 13335 ft 416 kts 76°
2026-05-06 12:58 37.78875 24.34776 13825 ft 419 kts 76°
2026-05-06 12:58 37.79466 24.38433 14305 ft 422 kts 76°
2026-05-06 12:58 37.80045 24.42014 14727 ft 425 kts 75°
2026-05-06 12:58 37.80641 24.45713 15184 ft 429 kts 75°
2026-05-06 12:59 37.81237 24.49416 15613 ft 432 kts 75°
2026-05-06 12:59 37.81834 24.53128 16033 ft 435 kts 75°
2026-05-06 12:59 37.82435 24.56873 16438 ft 438 kts 75°
2026-05-06 12:59 37.83039 24.60655 16842 ft 441 kts 75°
2026-05-06 13:00 37.83642 24.64434 17228 ft 444 kts 75°
2026-05-06 13:00 37.84257 24.68293 17611 ft 447 kts 76°
2026-05-06 13:00 37.84866 24.72126 18006 ft 450 kts 75°
2026-05-06 13:00 37.85477 24.75983 18370 ft 452 kts 75°
2026-05-06 13:01 37.86095 24.79889 18741 ft 454 kts 75°
2026-05-06 13:01 37.86715 24.83818 19115 ft 457 kts 75°
2026-05-06 13:01 37.87328 24.87715 19483 ft 459 kts 75°
2026-05-06 13:01 37.87950 24.91672 19831 ft 461 kts 75°
2026-05-06 13:02 37.88578 24.95676 20159 ft 464 kts 75°
2026-05-06 13:02 37.89204 24.99673 20476 ft 466 kts 75°
2026-05-06 13:02 37.89827 25.03665 20803 ft 468 kts 75°
2026-05-06 13:02 37.90455 25.07699 21101 ft 471 kts 75°
2026-05-06 13:03 37.91084 25.11746 21406 ft 473 kts 75°
2026-05-06 13:03 37.91720 25.15846 21695 ft 475 kts 75°
2026-05-06 13:03 37.92351 25.19929 21969 ft 478 kts 75°
2026-05-06 13:03 37.92987 25.24059 22251 ft 480 kts 75°
2026-05-06 13:04 37.93627 25.28223 22634 ft 480 kts 74°
2026-05-06 13:04 37.94259 25.32351 23062 ft 478 kts 74°
2026-05-06 13:04 37.94889 25.36477 23495 ft 477 kts 74°
2026-05-06 13:04 37.95513 25.40567 23891 ft 476 kts 74°
2026-05-06 13:05 37.96131 25.44621 24250 ft 476 kts 74°
2026-05-06 13:05 37.96753 25.48713 24593 ft 476 kts 74°
2026-05-06 13:05 37.97378 25.52828 24940 ft 475 kts 74°
2026-05-06 13:05 37.98004 25.56966 25289 ft 475 kts 74°
2026-05-06 13:06 37.98621 25.61058 25640 ft 474 kts 74°
2026-05-06 13:06 37.99233 25.65132 25979 ft 474 kts 74°
2026-05-06 13:06 37.99846 25.69215 26283 ft 474 kts 74°
2026-05-06 13:06 38.00453 25.73260 26578 ft 473 kts 74°
2026-05-06 13:07 38.01034 25.77153 26851 ft 473 kts 74°
2026-05-06 13:07 38.01594 25.80915 27113 ft 473 kts 74°
2026-05-06 13:07 38.02208 25.85045 27396 ft 473 kts 74°
2026-05-06 13:07 38.02855 25.89409 27675 ft 473 kts 73°
2026-05-06 13:08 38.03466 25.93537 27936 ft 473 kts 74°
2026-05-06 13:08 38.04067 25.97605 28199 ft 473 kts 74°
2026-05-06 13:08 38.04662 26.01656 28468 ft 472 kts 73°
2026-05-06 13:08 38.05259 26.05726 28741 ft 472 kts 73°
2026-05-06 13:09 38.05889 26.09784 29005 ft 469 kts 71°
2026-05-06 13:09 38.07617 26.17715 29075 ft 465 kts 66°
2026-05-06 13:10 38.09591 26.25473 29077 ft 464 kts 65°
2026-05-06 13:10 38.11675 26.33158 29070 ft 461 kts 63°
2026-05-06 13:11 38.13955 26.40752 29076 ft 461 kts 62°
2026-05-06 13:11 38.16222 26.48295 29072 ft 460 kts 63°
2026-05-06 13:12 38.18487 26.55872 29066 ft 460 kts 62°
2026-05-06 13:12 38.20747 26.63457 29074 ft 460 kts 63°
2026-05-06 13:13 38.22992 26.71022 29067 ft 460 kts 63°
2026-05-06 13:13 38.25246 26.78640 29068 ft 459 kts 63°
2026-05-06 13:14 38.27481 26.86219 29068 ft 460 kts 63°
2026-05-06 13:14 38.29703 26.93774 29077 ft 459 kts 63°
2026-05-06 13:15 38.31723 27.01496 29079 ft 463 kts 69°
2026-05-06 13:15 38.33121 27.09516 29082 ft 467 kts 73°
2026-05-06 13:16 38.34335 27.17594 29072 ft 467 kts 73°
2026-05-06 13:16 38.35551 27.25713 29076 ft 467 kts 73°
2026-05-06 13:17 38.36766 27.33795 29082 ft 467 kts 73°
2026-05-06 13:17 38.37979 27.41877 29073 ft 467 kts 73°
2026-05-06 13:18 38.39185 27.49940 29152 ft 469 kts 73°
2026-05-06 13:18 38.39791 27.54011 29430 ft 468 kts 73°
2026-05-06 13:18 38.40390 27.58049 29730 ft 467 kts 73°
2026-05-06 13:18 38.40987 27.62100 29948 ft 468 kts 73°
2026-05-06 13:19 38.41595 27.66208 30125 ft 469 kts 73°
2026-05-06 13:19 38.42198 27.70283 30275 ft 471 kts 74°
2026-05-06 13:19 38.42802 27.74387 30448 ft 472 kts 74°
2026-05-06 13:19 38.43398 27.78454 30629 ft 473 kts 73°
2026-05-06 13:20 38.44001 27.82579 30795 ft 474 kts 74°
2026-05-06 13:20 38.44601 27.86685 30962 ft 474 kts 74°
2026-05-06 13:20 38.45203 27.90822 31040 ft 476 kts 74°
2026-05-06 13:21 38.46401 27.99098 31048 ft 475 kts 74°
2026-05-06 13:21 38.47594 28.07366 31041 ft 475 kts 74°
2026-05-06 13:22 38.48779 28.15625 31051 ft 475 kts 74°
2026-05-06 13:22 38.49957 28.23881 31046 ft 475 kts 74°
2026-05-06 13:23 38.51126 28.32113 31050 ft 475 kts 74°
2026-05-06 13:23 38.52294 28.40383 31064 ft 475 kts 74°
2026-05-06 13:24 38.53459 28.48678 31073 ft 475 kts 74°
2026-05-06 13:24 38.54613 28.56942 31078 ft 475 kts 74°
2026-05-06 13:25 38.55765 28.65233 31079 ft 475 kts 75°
2026-05-06 13:25 38.56908 28.73485 31080 ft 475 kts 75°
2026-05-06 13:26 38.58044 28.81755 31080 ft 475 kts 75°
2026-05-06 13:26 38.59170 28.89993 31083 ft 475 kts 75°
2026-05-06 13:27 38.60297 28.98278 31085 ft 475 kts 75°
2026-05-06 13:27 38.61415 29.06543 31086 ft 476 kts 75°
2026-05-06 13:28 38.62533 29.14854 31088 ft 475 kts 75°
2026-05-06 13:28 38.63641 29.23131 31091 ft 475 kts 75°
2026-05-06 13:29 38.64745 29.31432 31092 ft 475 kts 75°
2026-05-06 13:29 38.65848 29.39768 31100 ft 476 kts 75°
2026-05-06 13:30 38.66939 29.48075 31108 ft 475 kts 75°
2026-05-06 13:30 38.68026 29.56386 31111 ft 476 kts 75°
2026-05-06 13:31 38.69109 29.64714 31108 ft 476 kts 75°
2026-05-06 13:31 38.70186 29.73043 31103 ft 475 kts 76°
2026-05-06 13:32 38.71253 29.81348 31097 ft 475 kts 76°
2026-05-06 13:32 38.72315 29.89652 31097 ft 476 kts 76°
2026-05-06 13:33 38.73370 29.97957 31102 ft 476 kts 76°
2026-05-06 13:33 38.74425 30.06313 31099 ft 476 kts 76°
2026-05-06 13:34 38.75474 30.14667 31101 ft 476 kts 76°
2026-05-06 13:34 38.76502 30.22904 31102 ft 475 kts 76°
2026-05-06 13:35 38.77539 30.31259 31102 ft 476 kts 76°
2026-05-06 13:35 38.78569 30.39622 31106 ft 476 kts 77°
2026-05-06 13:36 38.79620 30.47931 31102 ft 474 kts 75°
2026-05-06 13:36 38.81176 30.56051 31105 ft 470 kts 68°
2026-05-06 13:37 38.83408 30.63841 31106 ft 467 kts 63°
2026-05-06 13:37 38.85960 30.71489 31104 ft 467 kts 63°
2026-05-06 13:38 38.88514 30.79135 31101 ft 467 kts 63°
2026-05-06 13:38 38.91039 30.86756 31101 ft 468 kts 63°
2026-05-06 13:39 38.93582 30.94462 31103 ft 467 kts 63°
2026-05-06 13:39 38.95960 31.01692 31109 ft 467 kts 63°
2026-05-06 13:40 38.98208 31.08554 31105 ft 467 kts 63°
2026-05-06 13:40 39.00691 31.16151 31102 ft 467 kts 63°
2026-05-06 13:41 39.03206 31.23865 31110 ft 467 kts 63°
2026-05-06 13:41 39.05694 31.31519 31099 ft 466 kts 63°
2026-05-06 13:42 39.08193 31.39222 31096 ft 467 kts 63°
2026-05-06 13:42 39.10683 31.46919 31100 ft 467 kts 63°
2026-05-06 13:43 39.13152 31.54575 31093 ft 467 kts 63°
2026-05-06 13:43 39.15629 31.62275 31089 ft 466 kts 63°
2026-05-06 13:44 39.18096 31.69966 31088 ft 467 kts 64°
2026-05-06 13:44 39.20566 31.77687 31080 ft 467 kts 64°
2026-05-06 13:45 39.23035 31.85427 31083 ft 467 kts 64°
2026-05-06 13:45 39.26706 31.96978 31083 ft 466 kts 64°
2026-05-06 13:46 39.29163 32.04734 31078 ft 466 kts 64°
2026-05-06 13:46 39.31597 32.12436 31076 ft 466 kts 64°
2026-05-06 13:47 39.34034 32.20172 31075 ft 467 kts 63°
2026-05-06 13:47 39.36471 32.27927 31067 ft 467 kts 63°
2026-05-06 13:48 39.38886 32.35641 31070 ft 467 kts 63°
2026-05-06 13:48 39.41270 32.43457 31064 ft 469 kts 66°
2026-05-06 13:49 39.42794 32.51628 31060 ft 475 kts 77°
2026-05-06 13:49 39.43085 32.60246 31064 ft 483 kts 89°
2026-05-06 13:50 39.42531 32.68856 31060 ft 484 kts 92°
2026-05-06 13:50 39.41906 32.77483 31061 ft 484 kts 91°
2026-05-06 13:51 39.41300 32.86128 31065 ft 485 kts 91°
2026-05-06 13:51 39.40699 32.94801 31065 ft 486 kts 91°
2026-05-06 13:52 39.40100 33.03466 31061 ft 486 kts 91°
2026-05-06 13:52 39.39494 33.12119 31061 ft 486 kts 91°
2026-05-06 13:53 39.38880 33.20808 31062 ft 487 kts 91°
2026-05-06 13:53 39.38263 33.29462 31058 ft 488 kts 91°
2026-05-06 13:54 39.37634 33.38164 31062 ft 488 kts 91°
2026-05-06 13:54 39.36999 33.46881 31059 ft 489 kts 91°
2026-05-06 13:55 39.36355 33.55609 31059 ft 489 kts 91°
2026-05-06 13:55 39.35705 33.64333 31061 ft 489 kts 91°
2026-05-06 13:56 39.35051 33.73034 31057 ft 490 kts 91°
2026-05-06 13:56 39.34389 33.81735 31055 ft 490 kts 91°
2026-05-06 13:57 39.33717 33.90493 31054 ft 491 kts 91°
2026-05-06 13:57 39.33040 33.99246 31053 ft 492 kts 91°
2026-05-06 13:58 39.32377 34.07725 31047 ft 492 kts 91°
2026-05-06 13:58 39.31707 34.16196 31045 ft 493 kts 91°
2026-05-06 13:59 39.31007 34.24978 31043 ft 493 kts 91°
2026-05-06 13:59 39.30300 34.33778 31057 ft 493 kts 91°
2026-05-06 14:00 39.29585 34.42546 31051 ft 493 kts 91°
2026-05-06 14:00 39.28867 34.51311 31058 ft 494 kts 92°
2026-05-06 14:01 39.28168 34.59743 31058 ft 494 kts 92°
2026-05-06 14:01 39.27439 34.68472 31063 ft 494 kts 92°
2026-05-06 14:02 39.26696 34.77293 31062 ft 495 kts 92°
2026-05-06 14:02 39.25958 34.85965 31066 ft 495 kts 92°
2026-05-06 14:03 39.25211 34.94661 31070 ft 495 kts 92°
2026-05-06 14:03 39.24447 35.03475 31074 ft 496 kts 93°
2026-05-06 14:04 39.23702 35.12020 31077 ft 496 kts 93°
2026-05-06 14:04 39.22922 35.20864 31076 ft 496 kts 93°
2026-05-06 14:05 39.22147 35.29580 31076 ft 494 kts 93°
2026-05-06 14:05 39.21364 35.38304 31077 ft 494 kts 93°
2026-05-06 14:06 39.20604 35.46733 31079 ft 494 kts 93°
2026-05-06 14:06 39.19864 35.54838 31077 ft 494 kts 93°
2026-05-06 14:07 39.19062 35.63573 31064 ft 494 kts 93°
2026-05-06 14:07 39.18258 35.72263 31065 ft 495 kts 94°
2026-05-06 14:08 39.17439 35.81031 31066 ft 494 kts 94°
2026-05-06 14:08 39.16618 35.89749 31071 ft 495 kts 95°
2026-05-06 14:09 39.15787 35.98501 31077 ft 493 kts 95°
2026-05-06 14:09 39.14838 36.07232 31080 ft 495 kts 97°
2026-05-06 14:10 39.13743 36.15898 31080 ft 495 kts 97°
2026-05-06 14:10 39.12631 36.24607 31079 ft 495 kts 97°
2026-05-06 14:11 39.11514 36.33340 31075 ft 494 kts 97°
2026-05-06 14:11 39.10441 36.41720 31071 ft 494 kts 97°
2026-05-06 14:12 39.09330 36.50339 31082 ft 494 kts 98°
2026-05-06 14:12 39.08229 36.58836 31070 ft 495 kts 98°
2026-05-06 14:13 39.07136 36.67225 31069 ft 496 kts 99°
2026-05-06 14:13 39.05919 36.76502 31057 ft 496 kts 99°
2026-05-06 14:14 39.04770 36.85204 31072 ft 497 kts 99°
2026-05-06 14:14 39.03611 36.93948 31060 ft 498 kts 99°
2026-05-06 14:15 39.02449 37.02627 31073 ft 498 kts 99°
2026-05-06 14:15 39.01270 37.11395 31079 ft 498 kts 99°
2026-05-06 14:16 39.00090 37.20129 31078 ft 498 kts 99°
2026-05-06 14:16 38.98900 37.28886 31079 ft 498 kts 100°
2026-05-06 14:17 38.97709 37.37606 31081 ft 497 kts 100°
2026-05-06 14:17 38.96514 37.46282 31089 ft 497 kts 100°
2026-05-06 14:18 38.95312 37.54987 31086 ft 497 kts 100°
2026-05-06 14:18 38.94098 37.63708 31086 ft 496 kts 101°
2026-05-06 14:19 38.92889 37.72356 31089 ft 496 kts 101°
2026-05-06 14:19 38.91668 37.81040 31092 ft 496 kts 102°
2026-05-06 14:20 38.90440 37.89713 31078 ft 496 kts 102°
2026-05-06 14:20 38.89206 37.98384 31073 ft 496 kts 102°
2026-05-06 14:21 38.87966 38.07054 31074 ft 497 kts 102°
2026-05-06 14:21 38.86720 38.15707 31081 ft 497 kts 102°
2026-05-06 14:22 38.85471 38.24359 31085 ft 496 kts 102°
2026-05-06 14:22 38.84213 38.33013 31092 ft 497 kts 102°
2026-05-06 14:23 38.82952 38.41637 31085 ft 496 kts 102°
2026-05-06 14:23 38.81679 38.50291 31085 ft 496 kts 102°
2026-05-06 14:24 38.80408 38.58895 31084 ft 496 kts 102°
2026-05-06 14:24 38.79120 38.67573 31089 ft 496 kts 103°
2026-05-06 14:25 38.77840 38.76138 31080 ft 495 kts 103°
2026-05-06 14:25 38.76564 38.84645 31080 ft 495 kts 103°
2026-05-06 14:26 38.75312 38.92945 31076 ft 495 kts 103°